Regional Weather Roundup
Issued by NWS Albany, NY

Home | Current Version | Previous Version | Graphics & Text | Print | Product List | Glossary On
Versions: 1 2 3 4 5 6 7 8 9 10 11 12 13 14 15 16 17 18 19 20 21 22 23 24 25 26 27 28
000
ASUS41 KALY 270310
RWRALY

NEW YORK STATE HOURLY WEATHER ROUNDUP
NATIONAL WEATHER SERVICE ALBANY NY
1100 PM EDT SUN MAR 26 2017

NOTE: "FAIR" INDICATES FEW OR NO CLOUDS BELOW 12,000 FEET WITH NO
SIGNIFICANT WEATHER AND/OR NO OBSTRUCTIONS TO VISIBILITY.

NYZ032-033-038>043-046>054-057>066-NYZ062>081-082-084-270400-
EAST


CITY           SKY/WX    TMP DP  RH WIND       PRES   REMARKS
ALBANY         CLOUDY    37  30  75 S9        30.31F WCI  30
GLENS FALLS    CLOUDY    33  30  88 CALM      30.31F
POUGHKEEPSIE   CLOUDY    37  31  78 SE3       30.35S
NEWBURGH       CLOUDY    37  36  93 SE9       30.35S WCI  31
MONTGOMERY     CLOUDY    37  34  89 E5        30.33F WCI  33
WHITE PLAINS   LGT RAIN  36  34  92 E8G18     30.33F VSB 1   WCI  30
ISLIP          DRIZZLE   38  38 100 E7        30.34F FOG     WCI  33
NEW YORK CITY  DRIZZLE   40  37  89 NE10      30.34F FOG     WCI  33
CENTRAL PARK   CLOUDY    39  38  96 E6        30.36F FOG     WCI  35
$$

NYZ005>009-017-018-044>046-055-056-270400-
CENTRAL


CITY           SKY/WX    TMP DP  RH WIND       PRES   REMARKS
FULTON         LGT RAIN  37  33  85 SE9       30.12F WCI  30
SYRACUSE       LGT RAIN  40  36  86 SE9       30.14F WCI  34
ROME           CLOUDY    36  31  82 SE10      30.22F WCI  28
ELMIRA         CLOUDY    43  37  79 S9        30.16F
BINGHAMTON     CLOUDY    33  32  96 S13       30.16F FOG     WCI  24
MONTICELLO     CLOUDY    32  30  93 E8        30.29F WCI  25
$$

NYZ026>034-041>043-087-270400-
NORTH


CITY           SKY/WX    TMP DP  RH WIND       PRES   REMARKS
WATERTOWN      CLOUDY    42  37  82 SE5       30.11F
FORT DRUM      NOT AVBL
MASSENA        CLOUDY    34  30  85 E6        30.19F WCI  29
SARANAC LAKE   CLOUDY    32  32 100 CALM      30.12F
PLATTSBURGH    LGT RAIN  36  28  73 S17       30.21F WCI  26
$$

NYZ001>004-010>016-019>021-085-270400-
WEST


CITY           SKY/WX    TMP DP  RH WIND       PRES   REMARKS
NIAGARA FALLS  CLOUDY    51  43  74 S10       29.97S
BUFFALO        LGT RAIN  49  43  80 S12       29.98F
DUNKIRK        LGT RAIN  51  44  77 S16G33    29.96S
JAMESTOWN      CLOUDY    45  39  81 S14       30.00S
WELLSVILLE     LGT RAIN  41  39  93 S16G25    30.07F FOG
ROCHESTER      CLOUDY    47  41  80 S12G20    30.03F
PENN YAN       CLOUDY    43  37  79 S12       30.10F
$$

             KEY
       WCI = WIND CHILL INDEX
       VSB = VISIBILITY
       HX  = HEAT INDEX
$$




USA.gov is the U.S. government's official web portal to all federal, state and local government web resources and services.